Location: Goettingen
(51.5300°N, 9.9433°E)
Time: 08:20:53
(UTC+01:00)

ISS - Pass Details

Date: 11 December 2018
Orbit: 401 x 408 km, 51.6° (Epoch: 12 December)

Event Time Altitude Azimuth Distance (km) Brightness Sun altitude
Rises 18:11:40 0° 282° (WNW) 2,320 1.2 -17.6°
Reaches altitude 10° 18:14:06 10° 264° (W) 1,456 0.2 -17.9°
Maximum altitude 18:16:32 19° 216° (SW) 1,016 -1.2 -18.3°
Drops below altitude 10° 18:18:57 10° 168° (SSE) 1,449 -1.0 -18.6°
Enters shadow 18:19:44 - 160° (SSE) 1,704 -0.7 -18.8°
